Theta_e
336 339 339 342 345 347 349 350 352 355 355 353 352 348 344 355 352 352 365 364 354 367 368 363 363 361 360 364 363 364 361 357 359 355 346 338 343 341 345 351 352 356 352
331 334 340 342 342 347 349 351 354 358 357 357 354 354 347 360 360 355 353 364 363 366 365 368 366 366 362 362 362 366 360 356 360 350 346 331 338 347 346 350 352 351 349
328 335 337 339 343 347 350 352 356 357 357 362 358 358 362 344 347 350 354 361 364 364 367 367 367 366 365 360 366 365 364 354 357 359 350 339 338 343 343 347 345 349 346
333 335 340 341 338 342 351 355 357 357 357 363 352 362 356 352 358 356 351 359 365 364 364 367 363 366 364 366 364 363 365 363 354 357 358 357 353 341 338 346 344 349 348
331 334 337 341 341 348 350 354 356 358 359 359 363 356 351 349 347 348 350 369 367 366 362 365 363 364 362 366 368 367 369 364 362 354 352 352 356 357 347 337 342 341 346
335 334 335 339 344 347 350 353 355 356 360 359 360 360 358 344 342 345 351 353 358 360 367 363 365 368 366 364 366 370 368 367 364 362 358 349 350 345 348 343 342 340 342
334 333 333 336 339 346 349 354 355 355 359 358 358 361 361 360 356 353 353 358 355 355 360 367 366 366 365 364 364 367 367 366 364 364 359 356 356 355 352 348 347 344 341
336 334 337 339 341 345 350 352 355 355 356 357 358 360 362 357 357 354 356 352 359 348 362 363 364 368 365 368 367 364 362 357 364 363 365 360 358 357 352 345 350 342 340
337 337 337 340 340 342 349 353 356 356 356 356 358 360 360 359 355 359 364 361 348 357 360 362 362 364 368 365 363 362 361 365 364 363 362 363 358 360 355 356 355 350 340
336 340 339 339 337 334 348 353 357 357 357 356 358 358 358 360 361 365 358 358 360 355 348 346 352 365 359 361 369 364 361 364 363 361 362 363 361 358 353 359 357 358 350
335 338 340 342 338 342 343 347 355 357 357 357 356 357 357 359 360 359 363 356 364 347 349 339 345 364 360 362 365 365 360 360 363 365 362 362 364 359 356 359 356 355 355
336 338 341 344 349 341 342 339 343 355 356 358 354 358 358 357 357 359 359 365 365 362 355 353 358 364 364 364 361 360 359 358 358 358 360 361 357 358 361 354 352 354 356
337 338 342 344 348 351 348 346 342 344 353 357 357 356 357 357 355 357 358 364 363 363 361 362 362 362 363 363 362 363 363 359 361 358 361 360 357 357 359 359 354 354 355
336 339 338 343 346 350 353 346 348 345 349 346 356 356 356 356 356 360 358 359 363 361 361 363 363 363 363 364 363 362 360 362 361 362 364 361 358 358 360 360 358 358 352
333 337 342 341 343 347 350 355 354 348 350 349 346 345 355 361 357 356 357 361 362 362 362 362 362 362 361 358 361 363 362 362 361 364 363 362 356 343 344 358 359 357 353
330 331 337 346 343 341 346 350 351 352 359 357 354 350 350 351 365 367 363 365 364 362 363 361 361 361 358 347 346 357 359 360 361 360 360 359 345 341 338 336 335 340 347
329 330 332 338 344 345 344 345 348 350 348 354 359 361 359 361 364 362 364 363 361 363 363 362 360 360 361 342 337 346 358 359 360 361 361 359 357 351 342 334 333 334 334
330 334 337 340 344 345 346 347 345 346 346 346 350 357 357 358 359 363 363 362 363 360 361 361 363 362 362 333 333 340 357 358 359 360 360 362 359 351 351 346 344 334 328
336 338 338 342 345 345 348 347 348 348 348 345 346 345 353 354 351 353 354 358 360 359 359 361 361 360 361 327 329 339 355 355 357 359 350 357 348 329 331 349 335 331 326
335 336 338 339 342 343 345 345 344 346 345 349 351 350 348 347 349 351 348 356 356 355 358 358 360 349 359 326 327 332 355 352 352 344 338 324 335 323 326 345 336 332 331
334 335 335 337 339 341 342 341 343 342 347 350 349 348 346 345 347 347 350 353 354 355 353 353 350 355 352 341 325 323 346 355 348 341 338 332 319 318 321 329 340 333 331
333 333 334 336 340 341 340 339 340 347 349 348 346 343 339 341 344 339 337 342 345 350 342 342 340 341 340 326 324 322 325 335 342 338 332 325 315 315 318 326 317 319 325
333 330 331 337 341 342 339 338 343 344 345 346 344 339 338 336 336 336 332 331 333 338 339 335 333 328 326 329 317 319 321 325 334 333 322 313 310 313 316 316 318 320 330
333 330 331 332 337 342 340 339 342 343 341 341 341 339 335 331 330 329 329 330 328 325 324 323 322 323 324 324 324 323 323 320 322 321 321 321 320 320 320 323 323 327 329
336 337 337 335 337 340 340 339 342 339 338 337 337 341 334 330 319 310 309 321 315 316 325 323 321 319 316 313 311 315 321 321 317 320 322 321 322 321 322 324 324 324 323
339 341 338 336 336 338 340 339 339 337 333 331 331 332 333 331 328 322 313 303 301 301 301 305 314 311 307 304 302 302 303 306 310 320 320 319 319 318 318 318 322 324 325
Wind_Speed
2 7 5 18 20 16 14 8 9 9 6 5 5 2 6 5 4 4 5 5 4 5 2 3 3 3 3 4 5 4 5 5 4 3 7 10 12 13 13 3 5 6 2
11 14 16 14 17 15 15 14 13 10 6 4 5 3 2 2 2 4 4 5 4 5 5 2 3 2 3 2 1 3 3 3 3 2 1 1 4 6 8 10 1 13 12
14 21 18 12 13 16 15 13 13 13 9 7 5 3 2 5 3 4 9 4 6 6 4 3 1 4 3 2 2 3 4 3 3 2 0 1 2 1 5 2 6 8 8
11 17 20 16 22 21 16 16 12 13 10 8 3 5 3 3 1 8 2 5 6 5 7 5 2 2 3 1 3 3 2 2 3 1 2 3 2 1 3 1 4 1 3
24 9 8 10 24 20 18 17 14 13 11 10 7 6 2 6 3 5 4 3 5 5 5 5 3 3 4 2 3 3 1 3 3 3 3 3 3 5 2 1 2 4 3
14 2 3 10 14 17 17 17 17 13 11 11 9 7 7 7 5 6 6 7 7 5 5 6 4 3 3 5 3 1 1 2 3 4 4 4 4 3 3 1 2 3 4
16 13 15 20 4 20 19 18 18 16 13 14 11 9 6 5 10 9 7 4 4 5 8 6 6 4 4 5 3 3 3 2 2 2 3 4 4 4 3 3 2 2 1
20 17 11 10 5 9 21 20 19 17 15 14 13 11 9 6 6 6 6 2 2 2 6 8 7 5 6 5 4 3 2 1 0 3 3 4 4 3 2 1 2 4 3
9 10 18 15 20 18 15 19 20 18 17 15 12 12 11 11 8 8 5 5 3 7 4 6 9 8 6 6 5 4 5 4 3 2 5 3 4 4 3 2 2 3 3
3 1 19 16 11 12 12 17 20 19 18 17 14 12 12 11 8 5 3 3 3 7 7 8 6 5 5 6 3 4 5 2 3 1 1 3 3 5 4 1 1 2 2
2 2 2 18 17 12 15 6 18 16 16 15 15 15 13 13 10 7 6 9 4 3 9 7 5 3 2 5 4 4 5 5 5 3 4 5 5 4 1 1 2 1 2
2 3 3 5 3 14 6 12 22 14 16 16 14 14 14 14 14 11 9 7 6 6 9 10 8 4 5 3 5 7 5 6 5 6 4 5 3 1 5 2 5 3 4
6 5 5 3 6 9 12 11 4 14 6 15 15 15 14 14 13 15 12 9 9 8 9 9 8 7 7 6 8 6 5 6 6 5 6 4 5 4 3 2 4 5 4
4 5 2 5 4 4 3 11 10 10 11 14 10 15 14 14 14 11 13 11 11 11 10 8 9 9 8 7 6 8 8 7 7 4 1 4 5 5 5 0 3 3 4
6 6 6 1 3 4 6 3 1 14 9 19 5 7 12 10 9 8 12 12 11 11 10 9 8 10 11 9 9 7 8 6 6 2 4 4 7 7 5 1 3 4 3
6 4 6 8 4 2 4 6 5 7 6 3 7 16 11 14 9 6 9 8 7 9 10 11 11 10 9 13 13 10 7 8 6 5 5 5 9 6 9 10 10 6 3
7 4 1 2 4 3 2 3 5 5 5 6 6 5 5 6 5 6 5 8 10 9 9 10 11 11 11 10 10 14 8 4 4 5 5 3 4 8 8 8 9 10 10
7 5 4 3 3 4 5 3 2 4 5 5 7 6 5 5 6 6 6 7 7 10 10 10 10 10 9 10 10 10 6 5 5 5 5 3 6 4 8 7 7 8 7
8 6 6 4 3 2 3 4 3 2 4 4 4 5 7 5 4 5 7 8 8 10 10 9 10 11 10 8 8 9 7 7 6 2 5 2 6 6 6 7 9 8 6
9 8 7 5 7 4 1 4 7 4 4 3 3 2 2 5 5 4 6 5 8 9 8 11 12 13 12 11 11 8 7 8 6 7 4 8 6 5 7 6 10 7 6
10 7 5 5 4 2 2 2 4 7 4 2 2 4 6 7 6 7 5 4 5 5 7 9 4 6 8 8 9 5 6 3 7 6 5 4 4 2 5 7 8 7 8
9 8 5 5 5 4 2 2 3 4 5 2 5 4 3 4 2 3 3 5 6 4 2 1 2 3 4 4 7 6 7 3 8 7 6 5 6 6 5 5 11 13 7
8 6 7 7 6 5 1 3 5 3 4 2 3 4 3 3 3 3 3 2 3 3 3 2 2 0 1 2 3 4 4 10 10 7 10 11 8 9 9 8 7 6 2
6 4 4 4 5 5 4 2 3 2 3 3 3 5 4 4 6 5 5 4 4 3 3 3 3 3 3 2 2 5 7 12 13 14 9 7 7 8 7 4 1 2 2
6 4 4 3 4 4 4 3 1 3 3 1 3 3 4 6 6 6 4 4 4 2 2 2 3 4 4 2 6 5 7 8 10 10 5 5 4 5 3 2 1 2 1
7 6 4 3 2 3 4 6 6 2 2 1 2 2 4 2 5 5 6 14 9 12 12 9 5 4 7 12 10 11 13 14 12 5 6 5 4 4 3 3 3 2 2
Wind_Direction
86 321 265 155 162 164 146 149 136 140 153 175 227 154 223 167 171 146 168 148 157 149 249 296 182 235 273 51 344 347 317 286 54 302 70 19 341 310 294 77 135 127 204
134 231 246 175 172 154 156 164 147 154 177 192 223 210 186 238 171 111 341 183 185 128 226 286 336 53 350 127 316 322 315 339 102 313 298 288 348 273 300 32 355 82 2
173 193 223 217 148 156 165 164 159 163 187 213 208 148 145 344 76 313 199 178 159 177 215 199 279 334 298 185 219 239 278 320 12 216 333 120 292 62 316 22 318 118 179
169 245 198 187 118 256 168 161 168 166 187 209 224 202 213 236 153 191 146 154 168 201 169 212 187 207 314 34 230 225 309 331 302 287 183 193 176 296 310 293 264 43 95
192 214 213 174 172 198 168 158 163 167 191 196 209 201 192 58 305 23 90 229 194 176 204 141 143 200 241 145 234 174 343 349 328 358 357 313 216 229 257 342 312 357 133
152 313 275 279 221 170 161 157 159 173 193 193 194 230 183 121 43 299 243 212 183 190 206 152 164 239 236 213 197 290 227 297 328 334 332 324 308 287 69 350 67 19 299
145 174 197 218 182 170 159 156 160 170 187 192 187 202 198 173 183 211 233 227 200 178 185 162 175 199 220 261 153 239 256 279 270 289 321 304 350 351 23 2 12 23 14
177 174 182 25 231 211 155 160 164 168 183 186 190 190 195 202 210 205 242 68 126 297 182 173 185 183 206 232 218 235 282 214 249 271 325 309 325 356 81 283 337 336 8
54 133 135 149 253 171 187 166 166 170 175 188 192 188 190 207 200 217 208 174 154 244 136 195 180 177 189 215 156 243 225 195 213 255 235 296 293 321 230 173 5 67 348
22 353 151 137 233 274 208 165 167 172 174 186 184 191 189 198 224 215 138 299 94 122 127 264 315 173 180 214 216 271 242 249 278 286 130 259 311 314 342 307 92 133 178
346 210 295 172 193 138 262 182 170 174 181 188 183 187 188 189 201 214 166 205 211 66 118 215 289 256 187 236 162 267 271 228 235 278 236 237 250 280 51 345 339 195 155
47 228 200 350 249 186 148 165 255 189 186 189 186 189 185 189 187 195 205 188 177 181 198 203 230 232 233 239 189 228 267 230 231 237 256 284 325 29 310 12 326 268 178
115 355 51 13 8 2 135 139 143 302 287 182 183 189 188 190 199 186 197 188 183 195 224 189 206 224 225 221 193 212 254 269 258 209 209 259 289 264 254 14 349 345 360
157 126 334 18 4 4 7 149 145 198 306 281 193 192 192 198 201 183 186 194 183 190 209 215 201 207 208 230 224 197 214 237 249 247 216 217 232 264 250 186 333 330 349
172 169 158 191 346 349 333 343 79 173 154 250 111 337 305 198 214 191 171 184 190 191 198 212 216 204 214 217 218 209 209 217 246 257 192 264 109 93 71 71 61 9 337
154 149 160 170 182 294 308 6 0 6 341 322 198 167 229 323 216 200 183 172 191 203 198 208 215 214 220 221 210 198 210 220 215 233 243 144 125 109 97 95 81 70 14
134 132 102 7 83 132 239 258 326 343 2 337 299 300 220 220 203 225 197 192 205 209 215 214 222 225 217 232 206 199 205 206 229 214 219 226 155 163 129 112 111 93 65
125 121 134 124 134 181 220 254 266 300 314 328 328 324 320 257 226 231 223 225 217 216 218 224 220 223 229 189 192 184 195 199 229 239 237 189 158 82 146 157 122 91 60
134 112 98 73 62 347 62 164 227 272 306 297 294 330 340 325 319 274 251 245 240 232 229 226 228 228 230 189 202 180 195 209 223 163 40 140 139 138 135 142 130 116 114
136 145 131 150 159 143 250 303 312 248 248 284 293 246 350 333 313 319 289 265 259 252 243 234 228 230 230 185 205 229 217 203 153 125 117 33 124 156 165 168 144 142 135
125 112 139 89 68 59 41 220 308 308 347 324 349 0 0 328 340 348 340 282 275 279 281 260 289 267 266 180 215 219 272 195 157 145 142 105 69 152 208 164 154 141 143
128 159 147 116 114 76 327 309 244 316 306 14 109 74 354 357 355 39 23 349 323 284 199 160 78 1 8 16 207 199 237 239 147 126 106 118 108 93 81 63 119 136 149
167 166 138 146 139 138 102 303 10 324 320 292 119 91 63 62 46 46 18 10 17 344 120 161 208 200 20 28 88 157 79 107 109 106 108 108 104 94 79 102 121 135 219
152 197 150 151 136 138 138 71 298 320 308 311 153 131 94 68 51 42 26 45 34 38 51 70 67 63 41 40 105 106 96 85 94 103 105 111 95 90 93 88 109 307 335
172 185 166 196 144 126 125 142 119 340 287 313 27 144 127 102 79 53 12 30 59 7 53 114 118 120 92 27 60 76 119 105 102 104 99 95 81 86 79 59 347 336 34
171 162 174 245 172 150 150 127 115 104 297 267 42 25 107 80 121 118 80 46 34 52 59 57 83 26 87 111 94 100 105 111 114 102 106 99 96 108 126 151 212 189 130